Weather History for Stevens Point, WI

Change the Weather History Date:

Friday, May 3, 2013

  Actual Average Record
Temperature  
Mean Temperature 36 °F -  
Max Temperature 41 °F 61 °F 91 °F (1959)
Min Temperature 30 °F 38 °F 19 °F (2004)
Degree Days  
Heating Degree Days 30    
Moisture  
Dew Point 34 °F    
Average Humidity 95    
Maximum Humidity 98    
Minimum Humidity 91    
Precipitation  
Precipitation 0.23 in - - ()
Sea Level Pressure  
Sea Level Pressure 30.14 in    
Wind  
Wind Speed 8 mph (NNE)    
Max Wind Speed 12 mph    
Max Gust Speed -    
Visibility 9 miles    
Events Rain    
Averages and records for this station are not official NWS values.
T = Trace of Precipitation, MM = Missing Value Source: NWS Daily Summary

Daily Weather History Graph

Daily Weather History Graph

Search for Another Location

Airport:

Trip Planner

Search our weather history database for the weather conditions in past years. The results will help you decide how hot, cold, wet, or windy it might be!

Date:

Astronomy

May. 03, 2013 Rise Set
Actual Time 5:45 AM CDT 8:05 PM CDT
Civil Twilight 5:12 AM CDT 8:37 PM CDT
Nautical Twilight 4:32 AM CDT 9:18 PM CDT
Astronomical Twilight 3:48 AM CDT 10:03 PM CDT
Moon 2:25 AM CDT (5/3) 1:45 PM CDT (5/3)
Length of Visible Light 15h 24m
Length of Day
14h 20m
Last Quarter, 37% of the Moon is Illuminated
May 3
Last Quarter
May 9
New
May 17
First Quarter
May 24
Full
May 31
Last Quarter

Hourly Weather History & Observations

Time (CDT) Temp. Windchill Dew Point Humidity Pressure Visibility Wind Dir Wind Speed Gust Speed Precip Events Conditions
12:38 AM 30.2 °F 24.3 °F 28.4 °F 93% 30.28 in 7.0 mi North 5.8 mph - N/A   Overcast
12:55 AM 30.2 °F 23.4 °F 28.9 °F 95% 30.27 in 10.0 mi North 6.9 mph - N/A   Overcast
1:15 AM 30.4 °F 23.6 °F 28.9 °F 94% 30.26 in 10.0 mi NNW 6.9 mph - N/A   Overcast
1:35 AM 30.2 °F 23.4 °F 28.8 °F 94% 30.26 in 10.0 mi North 6.9 mph - N/A   Overcast
1:55 AM 30.4 °F 22.9 °F 28.6 °F 93% 30.25 in 10.0 mi North 8.1 mph - N/A   Overcast
2:15 AM 30.4 °F 24.5 °F 28.4 °F 92% 30.23 in 10.0 mi North 5.8 mph - N/A   Overcast
2:35 AM 30.6 °F 22.4 °F 28.4 °F 92% 30.23 in 10.0 mi North 9.2 mph - N/A   Overcast
2:55 AM 30.6 °F 22.4 °F 28.2 °F 91% 30.22 in 10.0 mi North 9.2 mph - N/A   Overcast
3:15 AM 30.6 °F 23.1 °F 28.4 °F 92% 30.22 in 5.0 mi North 8.1 mph - N/A   Overcast
3:35 AM 30.2 °F 22.6 °F 28.9 °F 95% 30.21 in 4.0 mi North 8.1 mph - N/A   Overcast
3:55 AM 30.4 °F 21.5 °F 29.1 °F 95% 30.19 in 5.0 mi NNE 10.4 mph - 0.02 in   Overcast
4:15 AM 30.6 °F 21.8 °F 29.1 °F 94% 30.19 in 4.0 mi North 10.4 mph - 0.01 in   Overcast
4:35 AM 30.6 °F 23.8 °F 29.1 °F 94% 30.19 in 5.0 mi North 6.9 mph - 0.02 in   Overcast
4:55 AM 30.7 °F 23.3 °F 29.3 °F 94% 30.18 in 7.0 mi North 8.1 mph - 0.03 in   Overcast
5:15 AM 30.7 °F 24.9 °F 29.3 °F 94% 30.18 in 5.0 mi North 5.8 mph - 0.01 in   Overcast
5:35 AM 30.9 °F 27.5 °F 29.3 °F 94% 30.19 in 10.0 mi North 3.5 mph - 0.01 in   Overcast
5:55 AM 30.9 °F 24.3 °F 29.3 °F 94% 30.18 in 10.0 mi North 6.9 mph - 0.01 in   Overcast
6:15 AM 30.9 °F 26.2 °F 29.3 °F 94% 30.19 in 10.0 mi NNE 4.6 mph - N/A   Overcast
6:35 AM 31.1 °F 25.4 °F 29.8 °F 95% 30.19 in 4.0 mi North 5.8 mph - 0.02 in   Overcast
6:55 AM 31.1 °F 24.5 °F 30.0 °F 96% 30.18 in 4.0 mi NNE 6.9 mph - 0.03 in   Overcast
7:15 AM 31.1 °F 24.5 °F 30.0 °F 96% 30.18 in 5.0 mi NNE 6.9 mph - N/A   Overcast
7:35 AM 31.1 °F 23.1 °F 30.2 °F 96% 30.17 in 5.0 mi NNE 9.2 mph - 0.01 in   Overcast
7:55 AM 31.1 °F 25.4 °F 30.2 °F 96% 30.18 in 4.0 mi NNE 5.8 mph - 0.01 in   Overcast
8:15 AM 31.5 °F 24.2 °F 30.2 °F 95% 30.17 in 7.0 mi NNE 8.1 mph - N/A   Overcast
8:35 AM 31.8 °F 25.4 °F 30.7 °F 96% 30.17 in 10.0 mi NE 6.9 mph - N/A   Overcast
8:55 AM 31.8 °F 23.9 °F 30.7 °F 96% 30.17 in 7.0 mi NE 9.2 mph - N/A   Overcast
9:15 AM 32.0 °F 23.6 °F 31.1 °F 96% 30.16 in 5.0 mi NNE 10.4 mph - 0.01 in Rain Light Rain
9:35 AM 32.0 °F 25.6 °F 31.1 °F 96% 30.16 in 7.0 mi NNE 6.9 mph - 0.01 in Rain Light Rain
9:55 AM 32.0 °F 26.4 °F 31.1 °F 96% 30.16 in 10.0 mi NE 5.8 mph - 0.01 in Rain Light Rain
10:15 AM 32.2 °F 25.0 °F 31.6 °F 98% 30.15 in 7.0 mi NE 8.1 mph - 0.01 in Rain Light Rain
10:35 AM 32.5 °F 24.2 °F 31.8 °F 97% 30.15 in 10.0 mi NE 10.4 mph - 0.01 in Rain Light Rain
10:55 AM 33.1 °F 26.1 °F 32.0 °F 96% 30.15 in 10.0 mi NNE 8.1 mph - 0.01 in Rain Light Rain
11:15 AM 33.8 °F 25.8 °F 32.7 °F 96% 30.14 in 10.0 mi NNE 10.4 mph - N/A   Drizzle
11:35 AM 33.8 °F 25.8 °F 32.2 °F 94% 30.13 in 7.0 mi NNE 10.4 mph - 0.01 in Rain Light Rain
11:55 AM 34.0 °F 26.6 °F 32.2 °F 93% 30.14 in 10.0 mi NNE 9.2 mph - 0.01 in   Light Drizzle
12:15 PM 34.2 °F 27.5 °F 32.5 °F 94% 30.13 in 10.0 mi NNE 8.1 mph - N/A Rain Light Rain
12:35 PM 34.7 °F 26.9 °F 32.9 °F 93% 30.13 in 10.0 mi NNE 10.4 mph - N/A Rain Light Rain
12:55 PM 34.7 °F 27.5 °F 33.1 °F 94% 30.12 in 10.0 mi NNE 9.2 mph - N/A Rain Light Rain
1:15 PM 34.5 °F 27.3 °F 32.9 °F 94% 30.12 in 10.0 mi NNE 9.2 mph - N/A Rain Light Rain
1:35 PM 34.7 °F 26.4 °F 32.9 °F 93% 30.11 in 10.0 mi NE 11.5 mph - N/A   Light Drizzle
1:55 PM 34.9 °F 27.7 °F 33.6 °F 95% 30.11 in 10.0 mi NNE 9.2 mph - N/A Rain Light Rain
2:15 PM 35.4 °F 29.7 °F 34.0 °F 94% 30.11 in 7.0 mi NNE 6.9 mph - 0.01 in Rain Rain
2:35 PM 35.6 °F 29.9 °F 34.3 °F 95% 30.11 in 7.0 mi NNE 6.9 mph - 0.02 in Rain Light Rain
2:55 PM 36.1 °F 29.3 °F 35.1 °F 96% 30.11 in 10.0 mi NNE 9.2 mph - 0.02 in Rain Light Rain
3:15 PM 36.7 °F 31.2 °F 36.0 °F 97% 30.10 in 10.0 mi NNE 6.9 mph - N/A Rain Light Rain
3:35 PM 37.4 °F 32.1 °F 36.3 °F 96% 30.11 in 10.0 mi NE 6.9 mph - 0.01 in Rain Light Rain
3:55 PM 37.6 °F 31.6 °F 36.5 °F 96% 30.10 in 7.0 mi NE 8.1 mph - 0.03 in Rain Light Rain
4:15 PM 38.3 °F 32.5 °F 37.2 °F 96% 30.10 in 10.0 mi NE 8.1 mph - N/A Rain Rain
4:35 PM 38.5 °F 31.1 °F 37.2 °F 95% 30.09 in 10.0 mi NE 11.5 mph - 0.01 in Rain Light Rain
4:55 PM 39.0 °F 32.3 °F 37.6 °F 95% 30.08 in 10.0 mi NE 10.4 mph - 0.01 in Rain Light Rain
5:15 PM 39.2 °F 32.5 °F 37.8 °F 95% 30.08 in 10.0 mi NE 10.4 mph - 0.01 in Rain Light Rain
5:35 PM 39.6 °F 33.0 °F 38.5 °F 96% 30.07 in 10.0 mi NE 10.4 mph - 0.02 in Rain Light Rain
5:55 PM 39.4 °F 33.2 °F 38.3 °F 96% 30.07 in 10.0 mi NE 9.2 mph - 0.03 in Rain Light Rain
6:15 PM 40.1 °F 33.2 °F 39.0 °F 96% 30.07 in 10.0 mi NE 11.5 mph - N/A   Light Drizzle
6:35 PM 40.1 °F 34.1 °F 39.0 °F 96% 30.07 in 10.0 mi NE 9.2 mph - N/A   Overcast
6:55 PM 40.1 °F 34.1 °F 39.2 °F 97% 30.07 in 10.0 mi NE 9.2 mph - N/A   Light Drizzle
7:15 PM 40.3 °F 34.9 °F 39.2 °F 96% 30.07 in 10.0 mi NE 8.1 mph - N/A   Overcast
7:35 PM 40.5 °F 35.1 °F 39.4 °F 96% 30.07 in 10.0 mi NE 8.1 mph - N/A   Overcast
7:55 PM 40.5 °F 34.6 °F 39.4 °F 96% 30.07 in 10.0 mi NE 9.2 mph - N/A   Overcast
8:15 PM 40.5 °F 35.1 °F 39.4 °F 96% 30.07 in 10.0 mi NE 8.1 mph - N/A   Overcast
8:35 PM 40.6 °F 36.0 °F 39.6 °F 96% 30.08 in 10.0 mi NE 6.9 mph - N/A   Overcast
8:55 PM 40.6 °F 36.0 °F 39.6 °F 96% 30.08 in 10.0 mi NE 6.9 mph - N/A Rain Light Rain
9:15 PM 40.8 °F 36.2 °F 39.6 °F 95% 30.09 in 10.0 mi ENE 6.9 mph - N/A   Overcast
9:35 PM 40.6 °F 35.4 °F 39.6 °F 96% 30.09 in 10.0 mi NE 8.1 mph - N/A Rain Light Rain
9:55 PM 40.6 °F 35.4 °F 39.7 °F 97% 30.09 in 10.0 mi ENE 8.1 mph - N/A   Overcast
10:15 PM 40.6 °F 36.0 °F 39.7 °F 97% 30.08 in 10.0 mi NE 6.9 mph - N/A   Overcast
10:55 PM 40.6 °F 36.0 °F 39.7 °F 97% 30.06 in 10.0 mi NNE 6.9 mph - N/A   Overcast
11:15 PM 40.6 °F 36.7 °F 39.7 °F 97% 30.06 in 10.0 mi NNE 5.8 mph - N/A   Overcast
11:35 PM 41.0 °F 38.0 °F 39.9 °F 96% 30.07 in 10.0 mi NE 4.6 mph - N/A   Overcast
11:55 PM 41.0 °F 36.4 °F 39.9 °F 96% 30.06 in 7.0 mi NE 6.9 mph - 0.01 in Rain Light Rain